Temp
6 6 6 5 5 6 5 6 6 6 6 6 6 6 6 6 6 6 7 7 8 8 9 10 10 11 12 12 13 21 20 20 19 19 19 19 20 20 21 21 21 22 20 18 18 18 17
5 5 5 5 5 5 5 5 5 5 5 6 5 6 5 6 6 7 7 8 8 9 9 9 10 10 10 12 20 20 20 20 19 19 19 19 20 20 21 21 21 18 16 16 17 17 18
5 5 5 5 5 5 5 5 5 5 5 5 5 5 5 5 5 7 7 8 9 9 10 10 10 9 9 13 19 19 20 20 20 20 19 20 21 20 20 20 18 17 16 16 16 18 17
4 4 4 4 4 4 4 4 4 4 4 5 5 5 5 5 5 6 7 8 9 10 11 11 10 9 10 17 17 19 18 19 20 20 21 22 22 20 22 19 19 17 16 16 17 17 18
4 4 4 4 4 4 5 4 4 4 4 4 4 4 4 4 4 6 7 9 10 11 10 10 10 10 11 17 16 20 20 19 21 21 21 22 21 20 20 18 16 17 15 16 17 18 17
4 4 4 4 4 4 4 4 4 4 4 4 4 4 4 4 4 5 7 10 11 11 10 10 10 11 13 17 19 20 21 20 20 20 20 20 15 16 14 16 17 16 15 16 15 17 17
4 4 4 4 4 4 4 4 4 4 4 4 4 4 3 3 4 5 6 8 8 10 10 10 12 12 16 16 19 20 20 20 19 18 17 18 16 15 16 17 18 17 16 16 17 17 16
3 3 3 4 3 4 3 3 3 3 3 4 4 4 3 3 3 6 7 7 9 8 9 11 11 12 14 15 15 19 21 18 18 16 17 16 15 16 17 18 18 18 16 17 17 17 15
3 3 3 3 3 3 3 3 3 3 3 3 3 3 3 3 5 6 5 8 8 9 8 11 12 13 14 15 15 16 18 17 17 16 15 15 17 17 18 18 18 18 18 16 17 15 14
3 3 3 3 3 3 3 3 3 3 3 3 3 3 3 3 6 4 6 8 9 9 8 11 12 14 15 16 16 18 19 19 18 16 16 16 18 18 18 19 18 18 18 18 16 16 15
2 2 2 2 2 2 2 3 3 3 3 3 3 3 3 3 3 3 7 8 9 9 5 15 14 17 16 16 17 17 19 19 17 17 16 16 18 17 18 18 19 19 19 19 17 16 15
2 2 2 2 2 2 2 2 2 2 3 3 3 3 3 3 3 5 6 7 8 5 5 13 16 15 14 16 17 17 18 19 18 18 18 17 19 18 18 19 20 20 19 18 17 16 14
2 2 2 2 2 2 2 2 2 2 2 3 3 3 3 2 3 5 6 6 5 3 11 15 16 16 15 15 17 17 17 16 15 15 15 18 18 20 21 19 19 20 17 14 14 14 13
2 2 2 2 2 2 2 2 2 2 2 2 2 4 4 3 5 5 5 8 5 8 10 14 15 15 14 15 16 16 17 16 16 17 15 16 17 18 19 19 18 18 18 13 15 13 14
2 2 1 1 1 2 2 2 2 2 2 2 3 4 5 5 6 5 5 7 4 8 12 11 12 15 15 17 16 17 14 17 17 16 17 15 17 20 20 20 20 18 18 17 14 15 14
1 1 1 1 1 1 2 2 2 2 2 2 2 2 4 5 6 6 6 7 8 11 11 12 12 13 14 14 15 15 14 16 17 18 18 18 17 19 20 20 20 19 18 16 12 13 16
1 1 1 1 1 1 1 1 1 2 2 2 2 -0 6 6 6 6 6 7 8 11 11 11 11 11 13 12 12 13 15 17 18 18 19 18 16 18 19 18 17 17 17 14 13 13 14
1 1 1 1 1 1 1 1 1 1 2 2 -1 -2 6 5 6 4 4 7 9 10 11 11 11 12 11 11 12 14 14 16 18 18 17 16 15 15 18 18 18 17 16 15 12 12 10
1 1 1 1 1 1 1 1 1 1 1 1 -3 -2 5 5 5 3 4 7 8 8 9 10 11 12 11 11 11 13 14 16 17 17 15 16 12 13 17 16 17 17 16 14 12 11 12
1 1 1 1 1 1 1 1 1 1 1 1 -2 0 0 3 2 4 4 5 7 8 8 10 10 11 11 11 12 12 13 16 16 18 16 16 13 15 13 16 15 17 16 15 15 13 13
1 1 0 0 1 1 1 1 1 1 1 1 -3 -3 1 1 2 2 4 5 5 6 7 8 10 10 10 10 10 12 12 13 15 15 15 15 14 14 15 18 17 17 16 15 16 15 16
0 0 0 0 0 1 1 1 1 1 1 1 0 1 1 2 2 2 3 4 4 5 6 7 7 7 9 10 10 9 12 12 12 13 15 13 14 14 11 16 17 17 15 15 16 14 15
0 0 0 0 0 1 1 1 0 1 1 1 1 1 1 0 1 2 3 3 4 5 6 6 5 5 8 9 9 9 10 11 12 13 12 13 10 11 14 15 16 15 14 14 15 15 15
0 0 -0 0 0 0 0 0 0 0 0 0 0 0 0 -1 0 2 3 3 3 4 4 6 6 6 8 7 7 11 11 11 11 11 11 12 12 10 9 14 12 16 16 16 17 16 15
-0 -0 0 0 -0 -0 0 0 0 0 0 0 0 -0 -0 -1 1 2 2 3 3 4 5 5 6 7 6 6 7 9 8 10 9 11 13 11 10 9 10 9 14 17 16 15 16 16 15
-0 -0 -0 -0 -0 -0 -0 0 0 0 0 0 -0 0 0 -0 -1 2 1 2 2 2 3 5 6 5 6 7 6 6 8 10 11 13 13 12 12 11 8 10 11 14 17 16 16 14 16
-0 -0 -0 -0 -0 -0 -0 0 0 0 0 0 -0 -1 -0 -1 -1 1 -1 -1 2 2 2 3 3 3 5 5 5 6 8 10 11 12 12 10 8 9 6 9 12 13 16 17 14 13 17
-0 -0 -0 -0 -1 -0 -0 0 0 1 0 0 0 -0 -1 -0 -1 0 2 1 1 2 -1 0 2 3 2 4 6 6 6 9 10 12 12 11 9 8 8 6 11 13 17 16 14 14 17
-1 -1 -1 -0 -1 -0 -0 0 0 0 0 0 -0 0 -0 -1 -1 1 0 0 2 2 1 0 -0 1 1 2 3 3 6 6 8 9 12 11 11 10 11 10 12 14 16 16 14 16 16
Height
849 847 844 842 841 838 835 831 828 825 822 819 815 812 809 805 801 797 793 790 787 783 779 777 774 772 771 770 760 747 748 749 751 755 755 757 759 761 766 765 765 769 773 776 779 783 786
851 848 846 843 841 839 835 832 828 825 821 819 815 811 807 803 798 794 790 787 782 780 776 774 773 772 773 773 747 745 748 749 751 753 754 755 756 757 762 762 766 774 780 785 788 789 790
853 850 847 844 842 838 836 832 828 825 821 818 814 810 805 800 795 790 786 782 778 775 772 771 771 772 771 755 745 745 746 748 750 751 754 753 753 758 759 764 770 775 790 792 797 791 797
855 852 848 845 841 838 835 832 829 824 820 816 812 808 803 798 793 788 782 777 772 769 766 766 768 770 765 744 743 745 746 747 748 751 752 751 752 754 756 762 770 782 790 805 798 794 795
855 852 849 846 843 839 836 832 828 824 820 816 811 807 802 796 790 784 777 771 765 763 763 764 767 768 759 742 740 740 743 745 746 748 750 751 751 757 759 774 789 788 803 804 802 793 797
855 852 850 846 843 840 836 832 828 824 819 815 811 805 800 794 788 781 775 767 762 763 764 766 767 768 747 738 734 735 741 743 746 746 750 753 764 771 776 778 790 794 802 800 803 794 798
856 853 850 846 843 840 836 832 828 823 818 814 809 804 798 792 786 780 773 766 767 767 764 757 755 747 738 736 733 733 736 743 746 750 762 758 772 778 773 770 770 779 792 798 794 792 802
857 853 849 846 842 839 836 832 828 823 818 813 808 803 796 789 782 777 775 775 778 780 767 750 747 747 740 743 742 732 733 745 749 759 758 768 773 762 763 764 767 772 789 793 793 795 803
857 853 850 846 842 839 836 831 827 821 816 812 807 802 795 787 778 776 776 777 776 772 771 746 737 735 736 738 739 734 731 738 747 757 760 767 757 753 759 765 769 773 779 791 794 802 811
856 852 849 846 842 839 835 831 826 821 816 811 806 801 795 786 781 780 776 775 773 772 778 743 732 722 725 731 733 723 726 733 742 753 758 760 749 752 758 760 762 775 768 775 789 798 817
857 852 849 846 842 838 835 831 825 820 815 810 805 800 795 792 789 784 779 773 772 772 816 721 719 709 710 722 719 721 721 727 741 745 751 753 747 754 756 754 754 764 762 772 783 798 807
856 852 849 845 842 838 834 829 825 819 814 807 802 797 792 788 787 781 778 773 773 800 805 724 709 713 719 717 716 718 721 722 729 740 740 744 735 742 745 742 746 749 765 775 784 796 818
856 852 848 845 841 837 833 828 824 818 811 805 798 792 788 786 782 779 778 775 796 813 738 719 714 711 715 718 717 716 722 730 740 752 753 742 740 732 729 744 745 748 772 806 816 813 817
855 851 848 844 840 836 832 827 822 816 809 802 793 786 780 779 778 779 779 776 793 766 747 722 715 712 717 714 716 716 721 728 728 729 746 749 753 735 726 736 747 753 762 796 803 817 812
855 851 847 843 839 835 830 826 821 815 808 799 790 782 779 778 777 779 782 775 792 761 744 739 723 714 713 708 712 715 724 720 718 724 734 745 742 719 720 723 727 752 757 759 790 795 805
855 851 847 843 839 834 830 825 820 814 807 799 791 785 780 777 778 780 781 770 764 750 749 741 734 726 722 716 716 720 724 712 714 713 715 724 740 719 718 720 725 732 744 771 789 806 795
855 851 847 842 839 834 830 825 820 814 807 798 792 791 782 780 780 780 780 774 766 754 753 748 742 737 726 731 725 722 717 706 703 711 713 720 733 729 720 728 737 742 750 764 773 785 792
854 850 846 843 839 834 830 825 820 815 808 800 798 806 783 781 782 785 786 772 763 757 753 751 743 736 737 736 727 717 715 707 696 702 717 719 735 741 726 717 717 729 740 750 780 795 804
853 849 846 842 839 835 831 826 822 816 811 806 807 802 786 784 786 791 782 772 766 762 758 751 745 739 739 739 737 720 713 699 697 702 714 717 743 751 734 733 725 729 735 743 758 775 781
852 849 845 841 838 835 831 828 823 818 813 809 808 805 797 794 799 794 789 780 770 763 759 751 746 743 738 739 729 728 720 704 700 698 702 708 730 730 744 729 732 733 733 738 742 768 773
850 847 844 841 838 835 832 828 824 820 814 810 812 820 808 806 799 797 789 783 778 774 765 756 745 748 747 743 739 729 724 718 705 704 704 709 725 725 723 717 722 725 731 736 736 744 751
849 846 843 840 838 835 832 829 826 822 816 814 816 814 811 805 802 799 792 792 788 781 775 764 763 759 749 742 742 745 730 725 725 716 710 713 723 723 741 719 718 725 728 731 731 741 742
848 844 841 839 837 834 832 829 827 824 820 818 818 816 814 810 805 802 800 797 791 786 777 774 775 768 753 745 744 739 736 729 725 724 724 715 731 736 732 721 724 735 729 729 731 732 734
846 842 839 837 835 833 831 829 827 825 823 822 820 819 816 817 810 803 800 796 792 787 783 771 768 763 750 747 740 727 727 725 723 723 723 720 720 733 754 727 747 713 709 711 716 722 725
843 840 837 835 832 831 829 828 826 825 823 821 820 820 817 819 808 801 799 797 792 784 778 773 770 764 758 753 745 738 742 731 731 720 714 718 725 739 746 752 722 709 709 716 720 724 720
841 837 834 832 830 827 826 825 824 823 822 821 820 818 816 814 810 802 801 796 796 792 782 771 765 760 755 751 751 755 745 729 724 713 710 714 716 724 754 747 746 717 702 702 708 732 713
837 834 831 829 827 825 823 822 821 820 820 820 818 817 816 813 806 802 805 805 796 792 789 781 776 767 761 757 759 750 736 724 722 714 719 728 736 737 764 750 727 711 703 699 728 733 706
833 830 828 826 824 822 820 819 817 817 817 817 817 816 816 811 804 799 797 796 794 792 799 789 783 777 774 765 755 748 744 729 721 713 714 716 731 744 746 765 737 705 702 712 711 704 700
829 826 824 822 821 819 818 816 815 814 813 814 814 813 812 811 804 796 792 790 788 786 792 789 791 786 783 781 778 770 749 745 732 728 707 719 713 725 724 726 707 703 700 700 702 700 700
Wind_Speed
13 15 15 16 17 18 18 19 20 19 19 19 19 18 18 20 21 23 25 27 28 27 23 20 16 12 5 1 9 3 5 12 11 9 7 4 3 3 2 3 4 4 2 6 7 7 6
17 17 18 18 18 18 18 19 18 20 20 20 21 21 22 23 25 27 30 31 31 29 22 19 12 7 1 4 5 4 11 11 8 10 6 5 4 3 2 2 3 3 7 9 9 9 6
15 16 16 16 18 18 18 19 19 19 20 20 22 23 24 26 28 30 33 35 35 31 25 15 7 2 2 13 2 3 15 11 9 8 4 5 4 4 3 4 7 6 8 9 4 1 8
17 17 18 19 17 17 17 19 19 19 20 21 22 23 25 27 30 33 35 36 35 32 16 8 6 5 7 6 7 18 13 14 10 11 8 4 4 4 2 6 4 6 5 6 4 3 4
16 16 17 17 19 20 20 20 20 21 21 22 23 24 25 27 30 33 34 34 33 8 0 5 7 5 10 8 7 18 19 12 9 8 7 2 3 3 3 7 4 4 6 5 3 3 3
16 17 17 18 19 20 20 22 22 23 22 24 24 26 26 28 31 31 31 31 7 3 6 7 1 0 7 4 6 13 21 20 4 2 1 3 4 3 3 5 10 5 7 1 6 7 3
18 17 17 18 18 21 21 22 23 23 22 24 25 26 28 29 32 30 30 10 5 3 3 7 4 4 4 12 8 10 18 10 3 4 5 2 3 7 9 7 6 7 8 5 2 5 5
18 21 16 18 20 21 22 23 24 24 24 24 26 27 29 31 33 24 9 3 7 8 8 10 15 13 21 7 4 4 18 7 6 7 4 4 8 9 6 5 8 7 10 4 4 4 5
19 18 20 19 20 21 23 23 25 25 25 26 27 29 30 34 28 6 9 7 19 13 4 8 7 7 7 10 7 6 12 7 5 6 8 7 4 11 7 6 7 4 10 6 8 5 5
20 19 20 21 21 21 22 25 26 26 26 26 28 28 31 35 4 23 4 18 17 5 3 7 7 8 8 8 6 11 12 8 3 11 6 7 6 6 7 6 7 6 7 9 15 8 5
20 21 21 20 20 21 23 25 26 26 27 26 27 27 27 22 19 8 9 20 18 2 3 3 5 2 9 12 6 8 10 4 9 7 8 8 5 8 5 7 7 7 11 12 12 8 6
19 19 21 22 21 22 23 24 26 27 27 28 29 28 28 18 18 17 19 21 2 5 7 6 5 6 7 6 5 4 6 4 5 5 3 8 1 7 11 5 9 7 7 5 4 4 2
21 19 20 20 22 22 24 24 26 28 28 30 31 32 29 18 5 6 17 5 3 3 5 5 2 4 8 8 8 7 14 10 8 6 6 2 9 5 4 5 3 7 8 3 2 1 4
19 20 19 21 21 22 23 24 26 29 30 32 36 34 20 12 10 11 8 2 4 4 6 6 5 3 7 6 12 6 14 14 8 4 5 8 5 10 5 8 8 9 10 5 5 4 3
20 20 21 20 22 22 23 24 26 28 31 35 35 26 9 20 3 3 1 5 6 3 7 11 12 2 3 4 6 5 8 18 16 10 7 7 5 2 7 5 13 4 12 9 7 1 4
21 20 20 20 21 22 22 24 26 28 30 34 28 10 7 17 6 4 1 6 3 3 10 6 4 6 2 5 6 11 8 6 7 18 1 3 4 5 5 5 3 12 9 5 3 6 4
20 20 19 18 20 22 22 24 26 27 29 28 9 4 8 15 4 1 2 4 5 7 11 6 6 5 4 5 3 5 7 4 15 13 16 4 3 4 6 6 7 4 3 5 5 4 6
21 21 19 19 20 21 21 23 25 26 28 20 5 3 11 13 2 2 3 2 4 5 6 5 5 3 3 8 4 2 8 8 9 13 12 7 4 4 6 3 5 6 8 7 5 5 1
22 21 19 19 18 20 21 22 25 26 25 17 2 3 5 4 3 4 6 4 4 5 6 4 4 1 6 4 5 3 4 8 5 8 9 7 3 1 2 5 3 5 4 5 6 4 7
21 20 19 17 17 18 20 21 23 25 24 14 2 4 3 2 2 2 5 4 6 5 5 5 7 7 4 4 3 6 5 4 4 4 9 8 4 8 7 3 5 5 5 5 7 5 6
19 20 18 16 16 17 18 19 21 24 24 8 3 2 3 4 4 6 5 3 7 10 7 6 4 9 8 4 5 2 4 7 4 6 4 6 6 5 6 7 6 5 7 8 4 6 8
19 18 17 16 16 17 17 18 19 21 19 6 3 3 5 3 4 6 6 8 9 12 5 7 7 15 10 4 4 7 7 3 2 7 4 3 4 4 6 7 9 6 9 10 6 5 5
20 20 17 14 15 16 15 16 17 17 16 4 5 4 1 5 4 4 5 7 10 12 7 9 13 9 8 5 14 13 11 8 4 3 4 2 6 4 4 5 6 5 9 8 5 4 8
20 21 16 15 16 16 15 15 14 13 13 6 4 3 2 3 1 2 6 8 12 13 10 12 10 5 6 18 15 7 5 6 6 7 6 3 4 3 4 5 6 5 6 13 14 9 7
22 19 17 16 16 14 14 14 12 11 11 9 6 2 2 3 3 7 6 7 9 10 5 5 8 10 14 8 3 2 3 5 4 6 5 6 3 3 5 2 1 1 4 8 7 8 9
21 20 17 17 18 16 14 13 11 10 9 9 9 4 3 2 3 4 6 2 3 4 5 3 8 12 6 2 1 3 4 3 4 3 1 4 2 4 2 5 6 6 3 7 7 6 5
20 20 17 18 19 16 14 13 12 11 8 7 5 4 4 2 4 1 2 2 3 3 4 5 10 7 7 2 1 2 2 2 4 4 4 2 3 4 2 1 4 5 3 3 7 6 4
23 20 19 18 18 16 14 14 14 11 10 5 7 7 4 2 6 5 4 4 3 3 2 4 6 3 3 4 4 2 2 3 2 3 4 5 5 3 3 3 4 5 2 6 6 3 3
23 19 18 17 18 17 15 16 15 12 12 7 6 7 7 4 6 20 25 29 26 23 2 3 4 2 1 2 4 4 3 3 2 3 1 2 4 4 6 5 4 3 2 2 3 3 4
Wind_Direction
14 16 18 14 6 355 353 356 3 357 353 352 353 346 340 335 334 332 332 334 333 330 325 320 320 329 349 297 252 258 156 162 186 197 189 178 149 156 189 195 120 138 131 92 126 110 119
9 7 6 3 358 354 350 350 340 342 345 344 342 338 335 332 329 328 328 328 329 327 322 315 310 321 325 259 255 246 194 189 196 185 173 179 174 189 289 232 124 87 79 100 124 119 131
12 4 355 351 348 349 344 344 341 340 336 333 332 331 330 326 325 323 322 322 323 322 314 298 285 269 265 240 209 189 195 205 214 188 162 203 232 150 189 81 145 116 89 65 2 50 112
9 3 6 9 9 6 359 352 346 342 343 340 338 336 328 325 322 318 316 317 318 315 298 264 215 166 246 256 294 250 221 234 247 233 243 228 208 177 152 118 64 98 64 118 253 200 184
5 4 2 357 354 351 350 352 351 348 339 337 338 335 335 332 326 321 317 316 318 304 257 156 151 163 264 300 242 223 211 226 224 219 217 205 88 155 90 120 65 23 148 120 175 195 147
5 3 1 358 357 353 352 346 342 344 345 344 335 330 330 329 326 323 320 322 352 150 122 145 255 4 261 244 195 207 217 222 213 138 54 104 57 104 50 142 187 164 107 151 169 193 85
1 359 353 354 355 348 347 345 342 342 342 341 340 338 330 329 326 326 328 347 13 9 256 202 207 263 306 338 279 182 181 156 127 98 162 161 124 197 193 176 161 128 118 137 150 146 91
356 354 355 351 352 351 348 345 345 338 343 341 340 337 335 332 326 327 342 335 19 304 295 251 250 256 270 282 319 264 169 153 153 189 148 63 220 213 158 171 157 148 132 131 77 88 87
356 354 356 353 352 349 343 344 345 342 338 338 337 337 335 333 333 22 338 30 347 360 253 275 214 217 217 168 218 252 158 140 145 152 190 172 222 155 171 169 153 175 157 167 145 125 53
2 359 352 354 352 348 348 345 342 339 337 333 332 333 336 339 7 339 308 338 344 350 318 265 209 236 174 175 240 214 180 140 163 189 148 230 219 159 162 185 148 158 184 143 134 136 180
355 358 356 350 346 346 345 341 341 337 335 334 330 329 331 338 299 308 324 335 335 104 4 237 187 198 165 165 157 216 183 85 169 181 140 234 189 170 179 182 157 202 157 159 161 150 113
357 352 350 351 348 346 342 341 338 337 334 334 330 327 326 329 305 273 315 325 18 43 250 310 178 164 138 189 192 115 141 116 150 166 205 226 217 158 192 174 167 143 99 58 91 111 191
349 354 351 347 346 346 341 342 340 338 335 334 329 324 315 291 248 324 324 344 69 168 310 308 328 172 166 175 196 152 170 171 164 148 216 271 252 237 157 141 175 130 121 124 101 244 211
348 355 354 350 345 343 341 343 341 337 336 334 332 331 333 287 262 295 333 188 211 255 277 324 329 275 184 138 212 169 175 190 205 144 152 188 226 179 194 179 175 178 169 149 152 180 238
348 346 349 351 346 347 346 345 341 338 337 337 335 337 345 355 290 215 189 205 209 233 349 324 314 224 210 193 156 152 183 202 195 186 165 162 249 183 161 159 158 193 180 166 113 353 107
346 346 346 349 346 347 348 345 343 341 339 339 332 326 316 4 149 175 192 244 257 343 349 317 332 2 278 211 173 182 177 206 200 202 177 193 173 200 178 102 34 157 154 132 1 137 198
350 349 345 348 346 347 349 349 350 347 342 342 344 2 359 6 158 261 223 248 301 316 352 337 330 318 17 2 304 200 205 268 180 186 201 169 115 258 136 176 156 119 160 60 109 129 160
349 341 342 348 347 347 351 351 354 352 350 350 360 8 356 358 208 186 229 235 285 319 0 286 287 295 342 332 321 286 212 204 189 155 183 179 145 229 209 303 166 154 164 149 148 233 93
345 344 344 344 348 347 351 354 355 355 357 348 355 280 357 360 4 1 325 278 276 302 295 306 302 351 25 300 319 308 318 288 152 150 167 176 211 65 31 354 353 147 154 120 106 97 184
344 342 341 346 347 346 350 352 354 354 352 349 25 353 331 69 206 345 344 313 329 290 266 287 264 292 269 289 276 310 325 324 333 188 188 132 149 182 200 171 163 144 164 172 148 146 162
338 339 337 347 347 344 344 348 356 354 352 355 23 300 348 329 342 328 300 294 4 1 344 314 320 4 345 298 316 341 347 325 327 9 148 140 180 166 201 184 157 164 172 165 155 158 176
339 337 336 340 342 342 348 350 354 356 5 41 24 351 343 295 298 334 344 20 348 349 319 325 349 336 321 273 340 316 319 341 316 332 341 293 193 123 215 199 180 179 182 179 158 155 91
337 334 332 329 333 341 344 344 349 355 11 7 5 308 284 299 339 357 3 338 326 339 305 337 315 316 299 358 317 293 272 267 270 320 305 229 134 118 220 166 120 264 192 173 167 166 147
331 329 324 327 325 323 327 333 344 349 0 0 323 304 292 277 319 314 316 338 331 315 283 302 323 302 315 326 304 256 252 268 270 249 220 275 118 108 174 122 192 241 197 177 184 191 190
330 323 321 317 316 317 314 320 328 339 344 352 328 323 311 299 291 299 328 320 325 318 283 290 325 303 301 285 302 316 321 353 285 236 230 205 124 98 138 218 257 305 175 147 154 239 195
329 323 316 313 317 314 303 305 311 318 330 333 326 315 278 255 267 332 305 313 309 315 309 285 318 311 307 347 296 198 197 173 253 288 216 116 43 124 125 157 197 225 220 154 112 243 171
324 319 313 312 316 314 309 307 300 293 305 319 303 311 272 253 269 320 240 284 285 312 291 298 338 337 353 321 264 185 239 232 221 184 191 116 37 151 133 143 296 255 225 150 139 226 201
318 309 307 305 313 316 316 312 302 297 284 283 286 287 266 253 274 237 270 247 307 255 215 295 340 4 332 352 333 297 212 238 301 250 196 167 142 168 80 82 255 188 76 163 218 251 175
315 309 303 299 305 308 303 304 314 296 280 265 267 266 272 232 259 289 279 263 249 249 261 270 200 240 233 8 13 309 298 340 307 220 333 262 172 169 177 208 255 323 19 14 173 233 200